This is the latest recevied weather packets stored in our database for station/object K4KJQ-13. If no packets are shown the sender has not sent any weather packets the latest 1 day(s).
| Time | Temp. | Humidity | Pressure | Rain* | Wind** | Luminosity | Snow |
|---|---|---|---|---|---|---|---|
| 1778046670 | 14.44° C | 100% | 0 hPa | 0.25 mm | 5.81 m/s, 293° | - | - |
| 1778046370 | 15° C | 100% | 0 hPa | 0 mm | 4.02 m/s, 296° | - | - |
| 1778046070 | 15° C | 100% | 0 hPa | 0 mm | 3.13 m/s, 274° | - | - |
| 1778045770 | 15° C | 100% | 0 hPa | 0 mm | 4.02 m/s, 267° | - | - |
| 1778045470 | 15° C | 100% | 0 hPa | 0 mm | 4.92 m/s, 296° | - | - |
| 1778045170 | 15.56° C | 100% | 0 hPa | 0 mm | 4.02 m/s, 293° | - | - |
| 1778044870 | 15° C | 100% | 0 hPa | 0 mm | 4.92 m/s, 274° | - | - |
| 1778044570 | 15° C | 100% | 0 hPa | 0 mm | 4.02 m/s, 285° | - | - |
| 1778044270 | 15° C | 100% | 0 hPa | 0 mm | 5.36 m/s, 258° | - | - |
| 1778043970 | 15° C | 100% | 0 hPa | 0 mm | 4.47 m/s, 272° | - | - |
| 1778043670 | 15° C | 100% | 0 hPa | 0 mm | 4.02 m/s, 288° | - | - |
| 1778043370 | 15° C | 100% | 0 hPa | 0.25 mm | 4.02 m/s, 282° | - | - |
| 1778043070 | 14.44° C | 100% | 0 hPa | 0.51 mm | 4.47 m/s, 282° | - | - |
| 1778042770 | 14.44° C | 100% | 0 hPa | 1.52 mm | 4.02 m/s, 288° | - | - |
| 1778042470 | 14.44° C | 100% | 0 hPa | 1.52 mm | 2.24 m/s, 281° | - | - |
| 1778042170 | 15° C | 100% | 0 hPa | 1.52 mm | 3.13 m/s, 275° | - | - |
| 1778041870 | 14.44° C | 100% | 0 hPa | 1.52 mm | 3.13 m/s, 292° | - | - |
| 1778041570 | 15° C | 100% | 0 hPa | 1.52 mm | 2.24 m/s, 261° | - | - |
| 1778041270 | 14.44° C | 100% | 0 hPa | 1.52 mm | 3.13 m/s, 288° | - | - |
| 1778040970 | 15° C | 100% | 0 hPa | 1.52 mm | 2.68 m/s, 288° | - | - |
| 1778040670 | 15° C | 100% | 0 hPa | 1.78 mm | 2.24 m/s, 289° | - | - |
| 1778040370 | 14.44° C | 100% | 0 hPa | 1.78 mm | 1.34 m/s, 305° | - | - |
| 1778040070 | 14.44° C | 100% | 0 hPa | 1.78 mm | 3.58 m/s, 293° | - | - |
| 1778039770 | 14.44° C | 100% | 0 hPa | 1.52 mm | 3.58 m/s, 285° | - | - |
| 1778039470 | 15.56° C | 100% | 0 hPa | 1.27 mm | 2.24 m/s, 306° | - | - |
* Rain latest hour (hover to see other rain measurements)
** Current wind speed in m/s (hover to see current wind gust speed)